TimeEDT,TemperatureF,Dew PointF,Humidity,Sea Level PressureIn,VisibilityMPH,Wind Direction,Wind SpeedMPH,Gust SpeedMPH,PrecipitationIn,Events,Conditions,WindDirDegrees,DateUTC
12:53 AM,57.9,52.0,81,29.66,10.0,SSW,4.6,-,N/A,,Clear,210,2013-11-02 04:53:00
1:53 AM,54.0,50.0,86,29.64,10.0,West,4.6,-,N/A,,Clear,280,2013-11-02 05:53:00
2:53 AM,46.0,45.0,96,29.67,4.0,Calm,Calm,-,N/A,,Clear,0,2013-11-02 06:53:00
3:05 AM,46.4,42.8,87,29.66,1.5,Calm,Calm,-,N/A,,Clear,0,2013-11-02 07:05:00
3:13 AM,46.4,46.4,100,29.66,0.8,Calm,Calm,-,N/A,,Mist,0,2013-11-02 07:13:00
3:17 AM,46.4,46.4,100,29.64,1.0,NNW,3.5,-,N/A,,Clear,330,2013-11-02 07:17:00
3:24 AM,44.6,42.8,93,29.66,0.5,Calm,Calm,-,N/A,Fog,Fog,0,2013-11-02 07:24:00
3:53 AM,42.1,42.1,100,29.67,0.2,Calm,Calm,-,N/A,Fog,Fog,0,2013-11-02 07:53:00
4:53 AM,42.1,42.1,100,29.66,0.2,Calm,Calm,-,N/A,Fog,Fog,0,2013-11-02 08:53:00
5:26 AM,42.8,41.0,93,29.68,1.0,Calm,Calm,-,N/A,,Overcast,0,2013-11-02 09:26:00
5:32 AM,42.8,42.8,100,29.68,3.0,Calm,Calm,-,N/A,,Overcast,0,2013-11-02 09:32:00
5:53 AM,44.1,43.0,96,29.68,5.0,Calm,Calm,-,N/A,,Overcast,0,2013-11-02 09:53:00
6:53 AM,45.0,44.1,97,29.68,10.0,Calm,Calm,-,N/A,,Overcast,0,2013-11-02 10:53:00
7:53 AM,46.9,45.0,93,29.68,10.0,Calm,Calm,-,N/A,,Overcast,0,2013-11-02 11:53:00
8:53 AM,50.0,48.0,93,29.69,10.0,Calm,Calm,-,N/A,,Mostly Cloudy,0,2013-11-02 12:53:00
9:53 AM,52.0,46.9,83,29.67,10.0,Calm,Calm,-,N/A,,Clear,0,2013-11-02 13:53:00
10:53 AM,55.9,46.9,72,29.66,10.0,Calm,Calm,-,N/A,,Clear,0,2013-11-02 14:53:00
11:53 AM,59.0,46.0,62,29.64,10.0,Calm,Calm,-,N/A,,Clear,0,2013-11-02 15:53:00
12:53 PM,64.0,37.0,37,29.62,10.0,Variable,4.6,-,N/A,,Clear,0,2013-11-02 16:53:00
1:53 PM,66.0,37.9,36,29.61,10.0,SW,4.6,-,N/A,,Clear,230,2013-11-02 17:53:00
2:53 PM,66.0,37.0,34,29.60,10.0,SSW,6.9,-,N/A,,Clear,210,2013-11-02 18:53:00
3:53 PM,64.9,37.9,37,29.60,10.0,SW,3.5,-,N/A,,Clear,220,2013-11-02 19:53:00
4:53 PM,64.0,39.9,41,29.61,10.0,SSW,3.5,-,N/A,,Clear,210,2013-11-02 20:53:00
5:53 PM,57.9,42.1,56,29.60,10.0,Calm,Calm,-,N/A,,Clear,0,2013-11-02 21:53:00
6:53 PM,53.1,42.1,66,29.64,10.0,Calm,Calm,-,N/A,,Clear,0,2013-11-02 22:53:00
7:53 PM,48.9,42.1,77,29.66,10.0,Calm,Calm,-,N/A,,Clear,0,2013-11-02 23:53:00
8:53 PM,48.9,43.0,80,29.67,10.0,WNW,3.5,-,N/A,,Mostly Cloudy,300,2013-11-03 00:53:00
9:53 PM,55.9,44.1,64,29.72,10.0,NNW,5.8,16.1,N/A,,Mostly Cloudy,340,2013-11-03 01:53:00
10:53 PM,54.0,45.0,72,29.71,10.0,NW,4.6,-,N/A,,Mostly Cloudy,320,2013-11-03 02:53:00
11:53 PM,52.0,45.0,77,29.72,10.0,NW,3.5,-,N/A,,Overcast,320,2013-11-03 03:53:00